logo tempoitalia

Diretta Meteo Mytilini, Grecialunedì 31 agosto ore 08:20

Mappa
Sereno 24 °C Sereno 24 Ore: T.min 22 T.max 32
Ponente Nord/NOvest Km/h 16.7 Punto di rugiada: 16 °C Umidità: 60% Visibilità: 10 Km
Il sole sorge alle: 06:41 Il sole tramonta alle: 19:46
31 Agosto 2026 08:20 tempo osservato: Sereno Sereno 24 60 1015 vento: Nord N/NO 16.7
31 Agosto 2026 07:50 tempo osservato: Sereno Sereno 23 64 1015 vento: Nord N/NO 14.8
31 Agosto 2026 07:20 tempo osservato: Sereno Sereno 22 68 1015 vento: Nord O/NO 9.3
31 Agosto 2026 06:50 tempo osservato: Sereno Sereno 22 68 1015 vento: Nord O/NO 9.3
31 Agosto 2026 06:20 tempo osservato: Sereno Sereno 22 64 1015 vento: Nord N/NO 7.4
31 Agosto 2026 05:50 tempo osservato: Sereno Sereno 23 68 1015 vento: Nord NO 11.1
31 Agosto 2026 04:50 tempo osservato: Sereno Sereno 23 64 1015 vento: Nord N 0
31 Agosto 2026 02:50 tempo osservato: Sereno Sereno 24 60 1015 vento: Nord O/NO 7.4
31 Agosto 2026 01:50 tempo osservato: Sereno Sereno 25 61 1015 vento: Nord N/NO 14.8
31 Agosto 2026 00:50 tempo osservato: Sereno Sereno 25 61 1015 vento: Nord N/NO 14.8
30 Agosto 2026 23:50 tempo osservato: Sereno Sereno 25 61 1015 vento: Nord N/NO 20.3
30 Agosto 2026 23:20 tempo osservato: Sereno Sereno 26 54 1015 vento: Nord N/NO 22.2
30 Agosto 2026 22:50 tempo osservato: Sereno Sereno 26 54 1015 vento: Nord N/NO 22.2
30 Agosto 2026 22:20 tempo osservato: Sereno Sereno 26 54 1015 vento: Nord N/NO 18.5
30 Agosto 2026 21:50 tempo osservato: Sereno Sereno 26 54 1015 vento: Nord NO 16.7
30 Agosto 2026 21:20 tempo osservato: Sereno Sereno 26 54 1015 vento: Nord NO 14.8
30 Agosto 2026 20:50 tempo osservato: Sereno Sereno 26 54 1014 vento: Nord O/NO 13
30 Agosto 2026 20:20 tempo osservato: Sereno Sereno 27 50 1014 vento: Nord O/NO 13
30 Agosto 2026 19:50 tempo osservato: Sereno Sereno 28 45 1013 vento: Nord NO 14.8
30 Agosto 2026 19:20 tempo osservato: Sereno Sereno 29 42 1013 vento: Nord NO 20.3
30 Agosto 2026 18:50 tempo osservato: Sereno Sereno 29 42 1013 vento: Nord NO 20.3
30 Agosto 2026 18:20 tempo osservato: Sereno Sereno 30 40 1013 vento: Nord N/NO 20.3
30 Agosto 2026 17:50 tempo osservato: Sereno Sereno 32 33 1013 vento: Nord N/NO 24
30 Agosto 2026 17:20 tempo osservato: Sereno Sereno 31 37 1013 vento: Nord NO 25.9
30 Agosto 2026 16:50 tempo osservato: Sereno Sereno 31 37 1013 vento: Nord NO 27.8
30 Agosto 2026 16:20 tempo osservato: Sereno Sereno 31 37 1014 vento: Nord NO 25.9
30 Agosto 2026 15:50 tempo osservato: Sereno Sereno 31 40 1014 vento: Nord NO 25.9
30 Agosto 2026 15:20 tempo osservato: Sereno Sereno 30 42 1014 vento: Nord NO 24
30 Agosto 2026 14:50 tempo osservato: Sereno Sereno 30 42 1014 vento: Nord NO 24
30 Agosto 2026 14:20 tempo osservato: Sereno Sereno 30 42 1014 vento: Nord NO 22.2
30 Agosto 2026 13:50 tempo osservato: Sereno Sereno 29 45 1015 vento: Nord NO 25.9
30 Agosto 2026 13:20 tempo osservato: Sereno Sereno 28 45 1015 vento: Nord NO 20.3
30 Agosto 2026 12:50 tempo osservato: Sereno Sereno 28 48 1015 vento: Nord NO 16.7
30 Agosto 2026 12:20 tempo osservato: Sereno Sereno 27 50 1015 vento: Nord NO 16.7
30 Agosto 2026 11:50 tempo osservato: Sereno Sereno 27 54 1015 vento: Nord NO 18.5
30 Agosto 2026 11:20 tempo osservato: Sereno Sereno 26 61 1015 vento: Nord N/NO 22.2
30 Agosto 2026 10:50 tempo osservato: Sereno Sereno 25 61 1015 vento: Nord N/NO 20.3
30 Agosto 2026 10:20 tempo osservato: Sereno Sereno 25 61 1015 vento: Nord N/NO 22.2
30 Agosto 2026 09:50 tempo osservato: Sereno Sereno 25 65 1015 vento: Nord N/NO 22.2
30 Agosto 2026 09:20 tempo osservato: Sereno Sereno 24 64 1015 vento: Nord NO 22.2
30 Agosto 2026 08:50 tempo osservato: Sereno Sereno 24 64 1015 vento: Nord NO 14.8